Regional Weather Roundup
Issued by NWS

Home | Current Version | Previous Version | Graphics & Text | Print | Product List | Glossary On
Versions: 1 2 3 4 5 6 7 8 9 10 11 12 13 14 15 16 17 18 19 20 21 22 23 24 25 26 27 28 29 30 31 32 33 34 35 36 37 38 39 40 41 42 43 44 45 46 47 48 49 50
000
ASUS43 KLOT 222000
RWRIL

ILLINOIS REGIONAL WEATHER ROUNDUP
NATIONAL WEATHER SERVICE CHICAGO/ROMEOVILLE IL
300 PM CDT TUE JUL 22 2014

NOTE: "FAIR" INDICATES FEW OR NO CLOUDS BELOW 12,000 FEET WITH NO
SIGNIFICANT WEATHER AND/OR OBSTRUCTIONS TO VISIBILITY.

* THESE STATIONS ARE NOT UNDER NWS QUALITY CONTROL. THEY ALSO MAY NOT
  REPORT WEATHER SUCH AS PRECIPITATION OR FOG.

ILZ001-002-007-009-015-016-024-222100-
NORTHWEST ILLINOIS

CITY           SKY/WX    TMP DP  RH WIND       PRES   REMARKS
MOLINE         PTSUNNY   88  76  67 W8        29.97R HX  99
STERLING*      SUNNY     91  77  62 W9        29.96R HX 105
$$

ILZ003-004-008-010-011-017-018-222100-
NORTH CENTRAL ILLINOIS

CITY           SKY/WX    TMP DP  RH WIND       PRES   REMARKS
ROCKFORD       PTSUNNY   89  75  63 SW9       29.95S HX  99
FREEPORT*      SUNNY     85  77  76 SW9       29.97R HX  95
$$

ILZ005-006-012>014-019>023-222100-
NORTHEAST ILLINOIS

CITY           SKY/WX    TMP DP  RH WIND       PRES   REMARKS
CHICAGO-OHARE  MOSUNNY   89  70  53 SW13G23   29.93F HX  94
CHICAGO-MIDWAY MOSUNNY   91  72  53 S17       29.95F HX  98
AURORA         MOSUNNY   89  73  59 S14       29.95F HX  97
LANSING*       SUNNY     85  69  58 S16       29.97F HX  89
WAUKEGAN       MOSUNNY   89  72  56 SW14G24   29.90F HX  96
DUPAGE AIRPORT MOSUNNY   89  73  59 SW14      29.93F HX  97
WHEELING       MOSUNNY   90  72  55 S15G21    29.93F HX  97
NORTHERLY ISL    N/A     87  68  52 S18         N/A  HX  90
$$

LMZ740>746-222100-
SOUTHERN LAKE MICHIGAN

STATION/POSITION SKY/WX   TEMP    WIND        PRES    VSBY  WAVE
                          AIR SEA DIR/SP/G                  HT/PER
                          (F)     (DEG/KT/KT) (MB)    (MI)  (FT/S)
SOUTHERN BUOY              71 68  170/ 16/ 17 1013.7F         2/ 4
WAUKEGAN HARBOR            86     220/ 18/ 22 1013.5S
HARRISON CRIB              83     200/ 21/ 23   N/A
BURNHAM HARBOR             87     200/ 11/ 17   N/A
CALUMET HARBOR             86     200/ 12/ 18 1013.2F
MICHIGAN CITY              82     190/ 16/ 21   N/A
$$

ILZ025>027-034>036-040-047-049-050-058-095>099-222100-
WEST-CENTRAL ILLINOIS

CITY           SKY/WX    TMP DP  RH WIND       PRES   REMARKS
QUINCY         CLOUDY    83  75  77 SW9       29.99R HX  90
GALESBURG*     PTSUNNY   82  74  77 S9        29.98S HX  87
MACOMB*        CLOUDY    80  74  83 SE8       30.01S HX  84
$$

ILZ028>032-037-038-041>044-048-051>054-059>061-222100-
CENTRAL ILLINOIS

CITY           SKY/WX    TMP DP  RH WIND       PRES   REMARKS
PONTIAC        SUNNY     88  75  66 S9        29.99S HX  97
PEORIA         PTSUNNY   89  73  59 SW16      29.99F HX  97
SPRINGFIELD    CLOUDY    88  72  58 SW7       30.02R HX  94
TAYLORVILLE    NOT AVBL
$$

ILZ033-039-045-046-055>057-062-063-222100-
EAST-CENTRAL ILLINOIS

CITY           SKY/WX    TMP DP  RH WIND       PRES   REMARKS
CHAMPAIGN      SUNNY     86  70  58 S14       30.02F HX  90
MATTOON        MOSUNNY   85  67  54 S10       30.04F HX  87
$$

ILZ079-100>102-222100-
SOUTHWEST ILLINOIS

CITY           SKY/WX    TMP DP  RH WIND       PRES   REMARKS
ALTON          CLOUDY    86  73  66 S14       30.00F HX  93
CAHOKIA*       PTSUNNY   88  70  55 S10       30.01F HX  93
SPARTA*        MOSUNNY   86  66  51 S7        30.06F HX  88
$$

ILZ064>066-069>071-074>076-080>082-084>086-088>090-092>094-222100-
SOUTH-CENTRAL ILLINOIS

CITY           SKY/WX    TMP DP  RH WIND       PRES   REMARKS
CARBONDALE     SUNNY     88  68  51 SW7       30.07F HX  91
MARION         MOSUNNY   88  70  55 SW7       30.08F HX  92
MT. VERNON     SUNNY     90  70  51 S10       30.06F HX  95
SALEM*         MOSUNNY   90  67  47 S9G17     30.05F HX  93
$$

ILZ067-068-072-073-078-083-087-091-222100-
SOUTHEAST ILLINOIS

CITY           SKY/WX    TMP DP  RH WIND       PRES   REMARKS
FAIRFIELD*     MOSUNNY   90  73  58 SW3       30.06F HX  98
HARRISBURG*    SUNNY     88  68  50 SW5       30.07F HX  91
ROBINSON*      MOSUNNY   89  71  55 SW6       30.07S HX  95
$$

ABBREVIATIONS USED IN REMARKS
   TC - TEMPERATURE IN CELSIUS
  WCI - WIND CHILL INDEX
   HX - HEAT INDEX
  VSB - VISIBILITY
$$




USA.gov is the U.S. government's official web portal to all federal, state and local government web resources and services.